AirNav   Air Wisconsin Up To $57,000 Bonus
 
 1602 users online  

FD51 Summerland Key Cove Airport
Summerland Key, Florida, USA

GOING TO SUMMERLAND KEY?


FAA INFORMATION EFFECTIVE 08 OCTOBER 2020

Location

FAA Identifier: FD51
Lat/Long: 24-39-31.5160N 081-26-29.2970W
24-39.525267N 081-26.488283W
24.6587544,-81.4414714
(estimated)
Elevation: 4 ft. / 1 m (estimated)
Variation: 02W (1985)
From city: ARPT LCTD 25 MI EAST OF KEY WEST.
Time zone: UTC -4 (UTC -5 during Standard Time)
Zip code: 33042

Airport Operations

Airport use: Private use. Permission required prior to landing
Activation date: 10/1957
Control tower: no
ARTCC: MIAMI CENTER
FSS: MIAMI FLIGHT SERVICE STATION
Attendance: DAYLIGHT HOURS
Wind indicator: yes
Segmented circle: no
Landing fee: yes

Airport Communications

WX ASOS at EYW (18 nm W): PHONE 305-292-4046
  • MULTICOM 122.9

Nearby radio navigation aids

VOR radial/distance  VOR name  Freq  Var
EYWr076/20.1KEY WEST VORTAC113.5001E

 
NDB name  Hdg/Dist  Freq  Var  ID
MARATHON264/19.126004WMTH -- - ....
FISH HOOK075/19.933204WFIS ..-. .. ...

Airport Services

Airframe service: NONE
Powerplant service: NONE

Runway Information

Runway 12/30

Dimensions: 2550 x 20 ft. / 777 x 6 m
Surface: asphalt
RUNWAY 12  RUNWAY 30
Traffic pattern: leftleft
Displaced threshold: 359 ft.290 ft.
Obstructions: 40 ft. pline, 350 ft. from runway25 ft. trees, 300 ft. from runway

Airport Ownership and Management from official FAA records

Ownership: Privately-owned
Owner: SUMMERLAND KEY COVE ARPT CO
PO BOX 420290
SUMMERLAND KEY, FL 33042
Phone 757-576-0159
Manager: MATT STETTNER
PO BOX 420290
SUMMERLAND KEY, FL 33042
Phone 757-576-0159

Airport Operational Statistics

Aircraft based on the field: 16
Single engine airplanes: 14
Multi engine airplanes: 2
    

Additional Remarks

35' PLINES 100' EACH SIDE OF RWY.
FOR CD CTC KEY WEST APCH, WHEN APCH CLSD CNCT MIAMI CENTER AT 305-716-1731

Instrument Procedures

There are no published instrument procedures at FD51.

Some nearby airports with instrument procedures:

KNQX - Key West Naval Air Station (Boca Chica Field) (14 nm W)
KEYW - Key West International Airport (18 nm W)
KMTH - The Florida Keys Marathon International Airport (22 nm E)
X51 - Miami Homestead General Aviation Airport (70 nm NE)
07FA - Ocean Reef Club Airport (75 nm NE)
 
Loc | Ops | Rwys | IFR | FBO | Links
Com | Nav | Svcs | Stats | Notes

Reliance Aviation
AirBoss

 
Area around FD51 (Summerland Key Cove Airport)
 
Road maps at: MapQuest Bing Google
 
Aerial photo
WARNING: Photo may not be current or correct
Aerial photo of FD51 (Summerland Key Cove Airport)
Do you have a better or more recent aerial photo of Summerland Key Cove Airport that you would like to share? If so, please send us your photo.

 
Sectional chart

 
Airport distance calculator
Flying to Summerland Key Cove Airport? Find the distance to fly.

From to FD51

Sunrise and sunset
Times for 27-Oct-2020
 Local
(UTC-4)
 Zulu
(UTC)
Morning civil twilight07:0811:08
Sunrise07:3111:31
Sunset18:4822:48
Evening civil twilight19:1123:11

Current date and time
Zulu (UTC)  27-Oct-2020 15:22:05
Local (UTC-4)  27-Oct-2020 11:22:05
 
METAR
KNQX 
13nm SW 
271453Z 11015KT 10SM FEW015 SCT250 31/26 A3004 RMK AO2 SLP172 T03110261 53016
KEYW 
18nm W 
271453Z 10016KT 10SM FEW019 FEW025 29/26 A3005 RMK AO2 SLP175 T02890256 53016
KMTH 
22nm E 
271453Z AUTO 10011G19KT 10SM CLR 29/26 A3005 RMK AO2 SLP175 T02940256 53015
TAF
KNQX 
13nm SW 
2707/2807 11012KT 9999 SKC QNH2990INS TEMPO 2707/2713 BKN020 BKN065 BECMG 2713/2715 11012G20KT 9999 FEW020 SCT120 SCT250 QNH2997INS BECMG 2719/2721 11012G20KT 9999 SCT020 SCT120 BKN250 QNH2988INS BECMG 2801/2803 11010KT 9999 SCT020 SCT120 QNH2995INS AUTOMATED SENSOR METWATCH 2707 TIL 2710 T27/2710Z T31/2719Z FN00235
KEYW 
18nm W 
271123Z 2712/2812 11012G19KT P6SM SCT020 SCT120
NOTAMs
Click for the latest NOTAMs
NOTAMs are issued by the DoD/FAA and will open in a separate window not controlled by AirNav.

 

 
 

Would you like to see your business listed on this page?

 If your business provides an interesting product or service to pilots, flight crews, aircraft, or users of the Summerland Key Cove Airport, you should consider listing it here.  To start the listing process, click on the button below
 
Add a business
 

Other Pages about Summerland Key Cove Airport

Update a link
 
Copyright © AirNav, LLC. All rights reserved. Privacy Policy  Contact